Beatrice, NE

9:07 PM CST on February 20, 2017 (GMT -0600)
Beatrice Municipal

Weather History for KBIE - January, 2000

Change the Weather History Date:

Sunday, January 30, 2000

  Actual Average Record
Temperature  
Mean Temperature 18 °F -  
Max Temperature 24 °F 36 °F 68 °F (2012)
Min Temperature 10 °F 16 °F -11 °F (1966)
Degree Days  
Heating Degree Days 47    
Moisture  
Dew Point 13 °F    
Average Humidity 76    
Maximum Humidity 86    
Minimum Humidity 63    
Precipitation  
Precipitation 0.00 in - - ()
Sea Level Pressure  
Sea Level Pressure 30.31 in    
Wind  
Wind Speed 8 mph (WNW)    
Max Wind Speed 14 mph    
Max Gust Speed -    
Visibility 10 miles    
Events      
Averages and records for this station are not official NWS values.
T = Trace of Precipitation, MM = Missing Value Source: NWS Daily Summary

Daily Weather History Graph

Daily Weather History Graph

Search for Another Location

Airport or City:

Trip Planner

Search our weather history database for the weather conditions in past years. The results will help you decide how hot, cold, wet, or windy it might be!

Date:

Astronomy

Jan. 30, 2000 Rise Set
Actual Time 7:38 AM CST 5:42 PM CST
Civil Twilight 7:09 AM CST 6:11 PM CST
Nautical Twilight 6:36 AM CST 6:44 PM CST
Astronomical Twilight 6:04 AM CST 7:16 PM CST
Moon 2:52 AM CST (1/30) 1:13 PM CST (1/30)
Length of Visible Light 11h 01m
Length of Day
10h 04m
Waning Crescent, 28% of the Moon is Illuminated
Jan 30
Waning Crescent
Feb 5
New
Feb 12
First Quarter
Feb 19
Full
Feb 26
Last Quarter

Hourly Weather History & Observations

Time (CST) Temp. Windchill Dew Point Humidity Pressure Visibility Wind Dir Wind Speed Gust Speed Precip Events Conditions
12:10 AM 19.4 °F 10.4 °F 14.0 °F 80% 30.33 in 10.0 mi NW 6.9 mph - N/A   Overcast
12:29 AM 19.4 °F 11.5 °F 15.8 °F 86% 30.33 in 10.0 mi NW 5.8 mph - N/A   Overcast
12:50 AM 19.4 °F 10.4 °F 15.8 °F 86% 30.33 in 10.0 mi NW 6.9 mph - N/A   Overcast
1:10 AM 19.4 °F 11.5 °F 14.0 °F 80% 30.32 in 10.0 mi WNW 5.8 mph - N/A   Overcast
1:29 AM 19.4 °F 10.4 °F 14.0 °F 80% 30.32 in 10.0 mi WNW 6.9 mph - N/A   Overcast
1:50 AM 19.4 °F 9.5 °F 14.0 °F 80% 30.32 in 10.0 mi NW 8.1 mph - N/A   Overcast
2:10 AM 19.4 °F 7.2 °F 15.8 °F 86% 30.32 in 10.0 mi NNW 11.5 mph - N/A   Overcast
2:33 AM 19.4 °F 7.2 °F 15.8 °F 86% 30.32 in 10.0 mi NNW 11.5 mph - N/A   Overcast
2:51 AM 19.4 °F 6.0 °F 15.8 °F 86% 30.33 in 10.0 mi NNW 13.8 mph - N/A   Overcast
3:11 AM 19.4 °F 7.9 °F 15.8 °F 86% 30.32 in 10.0 mi NNW 10.4 mph - N/A   Overcast
3:33 AM 19.4 °F 7.2 °F 14.0 °F 80% 30.32 in 10.0 mi NNW 11.5 mph - N/A   Overcast
4:29 AM 19.4 °F 7.2 °F 15.8 °F 86% 30.32 in 10.0 mi NNW 11.5 mph - N/A   Overcast
4:49 AM 19.4 °F 7.9 °F 15.8 °F 86% 30.32 in 10.0 mi NNW 10.4 mph - N/A   Overcast
5:31 AM 19.4 °F 7.2 °F 14.0 °F 80% 30.33 in 10.0 mi North 11.5 mph - N/A   Overcast
5:49 AM 19.4 °F 8.6 °F 12.2 °F 74% 30.33 in 10.0 mi NW 9.2 mph - N/A   Overcast
6:13 AM 19.4 °F 10.4 °F 12.2 °F 74% 30.33 in 10.0 mi NW 6.9 mph - N/A   Overcast
7:09 AM 19.4 °F 9.5 °F 12.2 °F 74% 30.34 in 10.0 mi NW 8.1 mph - N/A   Overcast
7:31 AM 19.4 °F 7.2 °F 15.8 °F 86% 30.35 in 10.0 mi NNW 11.5 mph - N/A   Overcast
7:49 AM 19.4 °F 7.2 °F 14.0 °F 80% 30.35 in 10.0 mi NNW 11.5 mph - N/A   Overcast
8:13 AM 19.4 °F 7.9 °F 12.2 °F 74% 30.35 in 10.0 mi NNW 10.4 mph - N/A   Overcast
8:29 AM 19.4 °F 7.9 °F 12.2 °F 74% 30.35 in 10.0 mi NNW 10.4 mph - N/A   Overcast
9:09 AM 21.2 °F 9.5 °F 12.2 °F 68% 30.35 in 10.0 mi NNW 11.5 mph - N/A   Overcast
9:31 AM 21.2 °F 9.5 °F 12.2 °F 68% 30.35 in 10.0 mi NNW 11.5 mph - N/A   Overcast
9:52 AM 21.2 °F 9.5 °F 14.0 °F 74% 30.36 in 10.0 mi NNW 11.5 mph - N/A   Overcast
10:12 AM 21.2 °F 9.5 °F 12.2 °F 68% 30.36 in 10.0 mi NW 11.5 mph - N/A   Overcast
10:49 AM 21.2 °F 10.9 °F 14.0 °F 74% 30.36 in 10.0 mi NW 9.2 mph - N/A   Overcast
11:12 AM 21.2 °F 10.1 °F 15.8 °F 80% 30.36 in 10.0 mi NW 10.4 mph - N/A   Overcast
11:29 AM 21.2 °F 10.9 °F 14.0 °F 74% 30.35 in 10.0 mi NW 9.2 mph - N/A   Overcast
12:10 PM 23.0 °F 13.9 °F 15.8 °F 74% 30.33 in 10.0 mi NW 8.1 mph - N/A   Mostly Cloudy
12:29 PM 23.0 °F 13.9 °F 15.8 °F 74% 30.33 in 10.0 mi WNW 8.1 mph - N/A   Overcast
12:50 PM 23.0 °F 13.9 °F 15.8 °F 74% 30.32 in 10.0 mi WNW 8.1 mph - N/A   Overcast
1:09 PM 23.0 °F 13.9 °F 14.0 °F 68% 30.31 in 10.0 mi NW 8.1 mph - N/A   Mostly Cloudy
1:30 PM 23.0 °F 12.4 °F 15.8 °F 74% 30.30 in 10.0 mi WNW 10.4 mph - N/A   Mostly Cloudy
1:51 PM 23.0 °F 13.9 °F 15.8 °F 74% 30.30 in 10.0 mi West 8.1 mph - N/A   Overcast
2:10 PM 23.0 °F 14.7 °F 14.0 °F 68% 30.29 in 10.0 mi NW 6.9 mph - N/A   Mostly Cloudy
2:29 PM 23.0 °F 13.1 °F 15.8 °F 74% 30.29 in 10.0 mi West 9.2 mph - N/A   Scattered Clouds
2:50 PM 24.8 °F 16.9 °F 14.0 °F 64% 30.29 in 10.0 mi WNW 6.9 mph - N/A   Scattered Clouds
3:13 PM 24.8 °F 16.1 °F 15.8 °F 69% 30.29 in 10.0 mi NW 8.1 mph - N/A   Scattered Clouds
3:29 PM 24.8 °F 19.1 °F 15.8 °F 69% 30.28 in 10.0 mi WNW 4.6 mph - N/A   Mostly Cloudy
4:49 PM 24.8 °F 16.9 °F 15.8 °F 69% 30.28 in 10.0 mi WNW 6.9 mph - N/A   Scattered Clouds
5:13 PM 24.8 °F 16.9 °F 14.0 °F 64% 30.29 in 10.0 mi WNW 6.9 mph - N/A   Scattered Clouds
5:31 PM 23.0 °F 15.8 °F 12.2 °F 63% 30.29 in 10.0 mi WNW 5.8 mph - N/A   Clear
6:09 PM 21.2 °F 14.9 °F 10.4 °F 63% 30.29 in 10.0 mi West 4.6 mph - N/A   Clear
6:53 PM 17.6 °F 10.7 °F 10.4 °F 73% 30.28 in 10.0 mi WSW 4.6 mph - N/A   Clear
7:09 PM 17.6 °F 10.7 °F 10.4 °F 73% 30.28 in 10.0 mi WSW 4.6 mph - N/A   Clear
7:30 PM 17.6 °F 9.3 °F 10.4 °F 73% 30.28 in 10.0 mi West 5.8 mph - N/A   Clear
7:49 PM 15.8 °F 8.6 °F 8.6 °F 73% 30.28 in 10.0 mi West 4.6 mph - N/A   Clear
8:11 PM 15.8 °F 7.2 °F 10.4 °F 79% 30.27 in 10.0 mi West 5.8 mph - N/A   Clear
8:29 PM 15.8 °F 7.2 °F 8.6 °F 73% 30.28 in 10.0 mi West 5.8 mph - N/A   Clear
9:10 PM 12.2 °F 4.3 °F 8.6 °F 85% 30.27 in 10.0 mi WSW 4.6 mph - N/A   Clear
9:48 PM 12.2 °F 2.9 °F 6.8 °F 79% 30.26 in 7.0 mi West 5.8 mph - N/A   Clear
10:50 PM 12.2 °F 2.9 °F 8.6 °F 85% 30.25 in 10.0 mi WSW 5.8 mph - N/A   Clear
11:08 PM 12.2 °F 4.3 °F 8.6 °F 85% 30.25 in 10.0 mi WSW 4.6 mph - N/A   Clear
11:30 PM 12.2 °F - 6.8 °F 79% 30.24 in 10.0 mi Calm Calm - N/A   Clear
11:48 PM 10.4 °F 4.0 °F 6.8 °F 85% 30.24 in 10.0 mi West 3.5 mph - N/A   Clear